Date String (YYYY-MM-DD hh:mm:ss) UTC,Instrument flags,absolute air pressure of the measurement (hPa),sample flow rate (lpm),inlet stack bypass flow (lpm),air temperature of the measurement (°C),ambient temperature measured by the external sensor (°C),aerosol sample conditioner tube jacket temperature (°C),OPC LED temperature (°C),internal box temperature (°C),relative humidity of the measurement (%),span deviation,mass concentration of particles derived from Lorenz-Mie calculation of OPC scattering (μg/m³),mass concentration of particles derived from Lorenz-Mie calculation of OPC scattering (μg/m³),mass concentration of particles derived from Lorenz-Mie calculation of OPC scattering (μg/m³)
DateTimeUTC,F1_M11,P_M11,Q1_M11,Q2_M11,T1_M11,T2_M11,T3_M11,T4_M11,T5_M11,U1_M11,ZSPAN_M11,X0_M11,X2_M11,X1_M11
2023-08-19 07:00:00,SystemResetWarning,0831.4,5.01,000.00,028.1,026.6,000.0,036.5,029.9,27.6,0000.0,0002.39,0001.70,0001.37
2023-08-19 07:01:00,SystemResetWarning,0831.4,5.01,000.00,028.2,026.8,000.0,036.5,029.9,27.1,0000.0,0002.33,0001.67,0001.36
2023-08-19 07:02:00,SystemResetWarning,0831.4,5.01,000.00,028.2,026.9,000.0,036.6,030.0,27.1,0000.0,0002.39,0001.69,0001.36
2023-08-19 07:03:00,SystemResetWarning,0831.4,4.99,000.00,028.2,027.1,000.0,036.6,030.0,27.0,0000.0,0002.32,0001.67,0001.36
2023-08-19 07:04:00,SystemResetWarning,0831.4,4.99,000.00,028.3,026.2,000.0,036.5,029.9,26.5,0000.0,0002.41,0001.71,0001.37
2023-08-19 07:05:00,SystemResetWarning,0831.3,5.00,000.00,028.2,024.4,000.0,036.4,029.5,26.7,0000.0,0002.55,0001.76,0001.38
2023-08-19 07:06:00,SystemResetWarning,0831.3,5.01,000.00,028.1,023.7,000.0,036.4,029.3,27.0,0000.0,0002.63,0001.79,0001.38
2023-08-19 07:07:00,SystemResetWarning,0831.3,5.01,000.00,027.9,023.8,000.0,036.3,029.1,27.1,0000.0,0002.73,0001.76,0001.38
2023-08-19 07:08:00,SystemResetWarning,0831.3,5.01,000.00,027.9,024.2,000.0,036.4,029.2,27.3,0000.0,0004.27,0001.76,0001.38
2023-08-19 07:09:00,SystemResetWarning,0831.3,4.99,000.00,027.8,024.7,000.0,036.4,029.3,27.2,0000.0,0004.99,0001.73,0001.38
2023-08-19 07:10:00,SystemResetWarning,0831.3,5.00,000.00,027.8,025.1,000.0,036.4,029.4,27.3,0000.0,0004.93,0001.69,0001.39
2023-08-19 07:11:00,SystemResetWarning,0831.3,5.00,000.00,027.9,025.5,000.0,036.4,029.5,27.3,0000.0,0004.97,0001.70,0001.39
2023-08-19 07:12:00,SystemResetWarning,0831.3,5.00,000.00,027.9,025.8,000.0,036.4,029.6,27.3,0000.0,0005.08,0001.75,0001.40
2023-08-19 07:13:00,SystemResetWarning,0831.3,4.99,000.00,027.9,026.1,000.0,036.4,029.7,27.4,0000.0,0005.20,0001.79,0001.40
2023-08-19 07:14:00,SystemResetWarning,0831.3,4.99,000.00,028.0,026.4,000.0,036.4,029.7,27.3,0000.0,0005.31,0001.80,0001.39
2023-08-19 07:15:00,SystemResetWarning,0831.4,5.00,000.00,028.0,026.6,000.0,036.4,029.8,27.3,0000.0,0005.38,0001.80,0001.40
2023-08-19 07:16:00,SystemResetWarning,0831.3,5.00,000.00,028.1,026.8,000.0,036.5,029.9,27.1,0000.0,0006.26,0001.77,0001.39
2023-08-19 07:17:00,SystemResetWarning,0831.3,5.01,000.00,028.1,026.9,000.0,036.5,029.9,27.0,0000.0,0006.95,0001.78,0001.41
2023-08-19 07:18:00,SystemResetWarning,0831.3,4.99,000.00,028.2,027.0,000.0,036.5,030.0,27.0,0000.0,0007.03,0001.79,0001.41
2023-08-19 07:19:00,SystemResetWarning,0831.3,5.00,000.00,028.2,027.2,000.0,036.6,030.0,27.0,0000.0,0005.68,0001.78,0001.41
2023-08-19 07:20:00,SystemResetWarning,0831.3,5.00,000.00,028.2,027.3,000.0,036.6,030.1,27.1,0000.0,0004.67,0001.81,0001.40
2023-08-19 07:21:00,SystemResetWarning,0831.3,5.00,000.00,028.3,026.5,000.0,036.5,030.0,27.0,0000.0,0004.70,0001.83,0001.39
2023-08-19 07:22:00,SystemResetWarning,0831.3,5.00,000.00,028.2,024.6,000.0,036.4,029.6,27.0,0000.0,0004.71,0001.86,0001.40
2023-08-19 07:23:00,SystemResetWarning,0831.3,5.00,000.00,028.1,023.7,000.0,036.3,029.4,27.3,0000.0,0004.72,0001.85,0001.39
2023-08-19 07:24:00,SystemResetWarning,0831.3,5.01,000.00,028.0,023.8,000.0,036.3,029.2,27.6,0000.0,0004.68,0001.82,0001.38
2023-08-19 07:25:00,SystemResetWarning,0831.3,5.01,000.00,027.9,024.1,000.0,036.4,029.2,28.1,0000.0,0004.75,0001.86,0001.38
2023-08-19 07:26:00,SystemResetWarning,0831.3,5.00,000.00,027.9,024.6,000.0,036.4,029.3,28.3,0000.0,0004.69,0001.86,0001.38
2023-08-19 07:27:00,SystemResetWarning,0831.3,5.00,000.00,027.8,025.1,000.0,036.4,029.4,27.9,0000.0,0004.40,0001.86,0001.36
2023-08-19 07:28:00,SystemResetWarning,0831.3,5.00,000.00,027.9,025.5,000.0,036.4,029.5,27.4,0000.0,0003.98,0001.82,0001.36
2023-08-19 07:29:00,SystemResetWarning,0831.3,4.99,000.00,027.9,025.8,000.0,036.4,029.6,27.4,0000.0,0003.90,0001.81,0001.36
2023-08-19 07:30:00,SystemResetWarning,0831.3,5.00,000.00,027.9,026.1,000.0,036.4,029.7,27.3,0000.0,0003.84,0001.80,0001.37
2023-08-19 07:31:00,SystemResetWarning,0831.3,5.01,000.00,028.0,026.3,000.0,036.4,029.7,27.9,0000.0,0004.30,0001.79,0001.38
2023-08-19 07:32:00,SystemResetWarning,0831.3,5.01,000.00,028.0,026.5,000.0,036.5,029.8,27.3,0000.0,0004.52,0001.81,0001.38
2023-08-19 07:33:00,SystemResetWarning,0831.3,5.00,000.00,028.1,026.7,000.0,036.5,029.8,27.0,0000.0,0004.60,0001.83,0001.39
2023-08-19 07:34:00,SystemResetWarning,0831.3,4.99,000.00,028.1,026.9,000.0,036.5,029.9,27.5,0000.0,0004.58,0001.83,0001.41
2023-08-19 07:35:00,SystemResetWarning,0831.3,5.00,000.00,028.1,027.0,000.0,036.5,029.9,27.4,0000.0,0004.50,0001.82,0001.43
2023-08-19 07:36:00,SystemResetWarning,0831.3,5.00,000.00,028.2,027.1,000.0,036.6,030.0,27.2,0000.0,0004.35,0001.80,0001.45
2023-08-19 07:37:00,SystemResetWarning,0831.3,5.00,000.00,028.2,027.2,000.0,036.6,030.1,27.1,0000.0,0004.38,0001.84,0001.47
2023-08-19 07:38:00,SystemResetWarning,0831.3,5.00,000.00,028.3,027.2,000.0,036.6,030.1,26.5,0000.0,0004.21,0001.88,0001.49
2023-08-19 07:39:00,SystemResetWarning,0831.2,5.00,000.00,028.3,025.6,000.0,036.5,029.8,26.6,0000.0,0003.66,0001.93,0001.51
2023-08-19 07:40:00,SystemResetWarning,0831.2,5.00,000.00,028.2,024.0,000.0,036.4,029.6,26.8,0000.0,0003.83,0002.01,0001.53
2023-08-19 07:41:00,SystemResetWarning,0831.3,5.01,000.00,028.1,023.7,000.0,036.3,029.4,26.9,0000.0,0003.89,0002.03,0001.53
2023-08-19 07:42:00,SystemResetWarning,0831.2,5.02,000.00,028.0,023.9,000.0,036.4,029.2,27.2,0000.0,0003.48,0002.06,0001.54
2023-08-19 07:43:00,SystemResetWarning,0831.2,5.00,000.00,027.9,024.4,000.0,036.4,029.3,27.3,0000.0,0003.22,0002.06,0001.55
2023-08-19 07:44:00,SystemResetWarning,0831.1,5.00,000.00,027.9,024.8,000.0,036.4,029.4,27.1,0000.0,0003.10,0002.06,0001.56
2023-08-19 07:45:00,SystemResetWarning,0831.1,5.00,000.00,027.9,025.2,000.0,036.4,029.5,27.2,0000.0,0003.17,0002.09,0001.56
2023-08-19 07:46:00,SystemResetWarning,0831.1,5.00,000.00,027.9,025.6,000.0,036.4,029.6,27.2,0000.0,0003.14,0002.08,0001.55
2023-08-19 07:47:00,SystemResetWarning,0831.1,5.00,000.00,027.9,025.9,000.0,036.4,029.6,27.4,0000.0,0003.26,0002.11,0001.56
2023-08-19 07:48:00,SystemResetWarning,0831.1,4.99,000.00,028.0,026.2,000.0,036.4,029.7,27.5,0000.0,0003.47,0002.13,0001.55
2023-08-19 07:49:00,SystemResetWarning,0831.1,4.99,000.00,028.0,026.4,000.0,036.5,029.8,27.5,0000.0,0003.41,0002.10,0001.56
2023-08-19 07:50:00,SystemResetWarning,0831.2,5.00,000.00,028.1,026.6,000.0,036.5,029.8,27.4,0000.0,0003.23,0002.05,0001.55
2023-08-19 07:51:00,SystemResetWarning,0831.1,5.00,000.00,028.1,026.8,000.0,036.5,029.9,27.3,0000.0,0003.13,0002.02,0001.54
2023-08-19 07:52:00,SystemResetWarning,0831.2,5.01,000.00,028.1,026.9,000.0,036.5,029.9,27.7,0000.0,0003.36,0002.04,0001.55
2023-08-19 07:53:00,SystemResetWarning,0831.2,5.01,000.00,028.2,027.0,000.0,036.6,030.0,27.9,0000.0,0003.44,0002.01,0001.55
2023-08-19 07:54:00,SystemResetWarning,0831.2,5.00,000.00,028.2,027.1,000.0,036.6,030.0,27.8,0000.0,0003.40,0002.00,0001.56
2023-08-19 07:55:00,SystemResetWarning,0831.2,4.99,000.00,028.3,027.2,000.0,036.6,030.1,27.4,0000.0,0003.38,0002.00,0001.57
2023-08-19 07:56:00,SystemResetWarning,0831.2,4.99,000.00,028.3,027.2,000.0,036.7,030.1,27.5,0000.0,0003.27,0001.97,0001.57
2023-08-19 07:57:00,SystemResetWarning,0831.2,5.01,000.00,028.3,026.0,000.0,036.6,029.9,28.0,0000.0,0003.51,0002.01,0001.57
2023-08-19 07:58:00,SystemResetWarning,0831.2,5.01,000.00,028.2,024.7,000.0,036.5,029.7,28.1,0000.0,0003.52,0001.99,0001.55
2023-08-19 07:59:00,SystemResetWarning,0831.2,5.02,000.00,028.2,024.7,000.0,036.4,029.6,28.2,0000.0,0003.23,0001.93,0001.53
